Overview Statistics Trail Chart Weather Telemetry Raw packets
 

This is the latest recevied weather packets stored in our database for station/object WAKT. If no packets are shown the sender has not sent any weather packets the latest 10 day(s).

<< 7 8 9 10 11 12 13 >>
Time Temp. Humidity Pressure Rain* Wind** Luminosity Snow
1787847121 25° C 89% 1014 hPa 0 mm - - -
1787845044 26.11° C 89% 1015 hPa 0 mm - - -
1787843033 26.11° C 89% 1015 hPa 0 mm - - -
1787840826 27.22° C 89% 1015 hPa 0 mm - - -
1787832032 27.22° C 84% 1014 hPa 0 mm - - -
1787829784 27.22° C 79% 1013 hPa 0 mm - - -
1787827685 31.11° C 59% 1012 hPa 0 mm - - -
1787825526 31.11° C 59% 1012 hPa 0 mm - - -
1787823505 32.78° C 56% 1011 hPa 0 mm - - -
1787821484 32.78° C 56% 1011 hPa 0 mm - - -
1787817197 32.78° C 53% 1011 hPa 0 mm - - -
1787815148 32.78° C 53% 1011 hPa 0 mm - - -
1787813105 32.78° C 56% 1012 hPa 0 mm - - -
1787808898 32.22° C 59% 1013 hPa 0 mm - - -
1787804745 31.11° C 66% 1014 hPa 0 mm - - -
1787802740 28.89° C 70% 1015 hPa 0 mm - - -
1787800765 28.89° C 70% 1015 hPa 0 mm - - -
1787796757 27.22° C 79% 1016 hPa 0 mm - - -
1787794734 26.11° C 84% 1017 hPa 0 mm - - -
1787792734 26.11° C 84% 1017 hPa 0 mm - - -
1787790750 25° C 89% 1017 hPa 0 mm - - -
1787786697 25° C 89% 1016 hPa 0 mm - - -
1787784697 23.89° C 89% 1016 hPa 0 mm - - -
1787782363 23.89° C 89% 1016 hPa 0 mm - - -
1787780351 23.89° C 89% 1015 hPa 0 mm - - -

* Rain latest hour (hover to see other rain measurements)
** Current wind speed in m/s (hover to see current wind gust speed)